Current weather by "City, St" or "zip code"  
 
Advertise Here

Current Conditions: Cattaraugus County-Olean Airport, NY

Overcast


59.0 F

Last Updated on Sep 17 2021, 12:55 am EDT
Humidity: 100%
Wind Speed: S 3.5 mph
Barometer 30.24 in
Dewpoint: 59.0 F
Visibility: 10.00 mi
Precip: --
Heat Index: NA
Wind Chill: NA
Current conditions at:

Cattaraugus County-Olean Airport, NY (KOLE)

Lat: 42.24119 Lon: 78.37136

Local Radar Image active severe weather and emergency alerts image image weather storm and storm spotter reports image weather observation monitoring service image
Local
Radar
Active
Alerts
Storm Reports Obs
Monitoring

Sign-up For Email & Text Message Weather Alert Notification Services



Advertise Here

Observation History for Cattaraugus County-Olean Airport, NY


Time Wind
(mph)
Vis
(mi)
Weather Precip (in) Temperature (F) Relative
Humidity
Wind
Chill
(F)
Heat
Index
(F)
Pressure
Air Dwpt altimeter
(in)
sea level
(mb)
Rmks
12:55 am EDT S 3.5 10.00 Overcast -- 59.0 59.0 100% NA NA 30.24 M
11:55 pm EDT SE 4.6 10.00 Mostly Cloudy -- 59.0 59.0 100% 59 NA 30.25 M
10:55 pm EDT SE 8.1 10.00 Fair -- 59.0 59.0 100% 58 NA 30.26 M
9:55 pm EDT SE 5.8 10.00 Fair -- 59.0 59.0 100% 58 NA 30.27 M
8:55 pm EDT SE 6.9 10.00 Fair -- 61.0 60.8 100% 60 NA 30.26 M
7:55 pm EDT SE 5.8 10.00 Partly Cloudy -- 61.0 59.0 94% 61 NA 30.25 M
6:55 pm EDT E 5.8 10.00 Partly Cloudy -- 63.0 57.2 83% 63 NA 30.24 M
5:55 pm EDT E 5.8 10.00 Overcast -- 66.0 57.2 73% NA NA 30.23 M
4:55 pm EDT E 5.8 10.00 Overcast -- 64.0 55.4 73% NA NA 30.24 M
3:55 pm EDT E 4.6 10.00 Overcast -- 66.0 53.6 64% NA NA 30.24 M
2:55 pm EDT E 4.6 10.00 Partly Cloudy -- 68.0 53.6 60% NA NA 30.24 M
1:55 pm EDT E 6.9 10.00 Partly Cloudy -- 66.0 53.6 64% NA NA 30.26 M
12:55 pm EDT SE 5.8 10.00 Partly Cloudy -- 64.0 53.6 68% NA NA 30.26 M
11:55 am EDT E 6.9 10.00 Partly Cloudy -- 59.0 59.0 100% 58 NA 30.27 M
10:55 am EDT E 4.6 10.00 Overcast -- 55.0 55.4 100% 54 NA 30.28 M
9:55 am EDT E 5.8 0.25 Fog -- 54.0 53.6 100% 53 NA 30.27 M
8:55 am EDT E 4.6 0.15 Fog -- 54.0 53.6 100% 53 NA 30.26 M
7:55 am EDT SE 3.5 0.15 Fog -- 52.0 51.8 100% NA NA 30.25 M
6:55 am EDT E 3.5 0.15 Fog -- 52.0 51.8 100% NA NA 30.23 M
5:55 am EDT N 0.0 0.15 Fog -- 52.0 51.8 100% NA NA 30.21 M
4:55 am EDT E 3.5 0.15 Fog -- 50.0 50.0 100% NA NA 30.18 M
3:55 am EDT N 0.0 0.25 Fog -- 50.0 50.0 100% NA NA 30.18 M
2:55 am EDT N 0.0 0.15 Fog -- 50.0 50.0 100% NA NA 30.17 M
1:55 am EDT N 0.0 0.50 Fog -- 52.0 51.8 100% NA NA 30.17 M

Regional Weather Observation


Buffalo, Greater Buffalo International Airport, NY (KBUF)

Fair
63.0 F

Dunkirk, Chautauqua County / Dunkirk Airport, NY (KDKK)

Fair
69.0 F

Jamestown, Chautauqua County/Jamestown Airport, NY (KJHW)

Fair
62.0 F

Wellsville, Wellsville Municipal Airport, NY (KELZ)

Overcast
62.0 F

Dansville, Dansville Municipal Airport, NY (KDSV)

Fair
61.0 F

Bradford Regional Airport, PA (KBFD)

Overcast
64.0 F
Advertise Here


Advertise Here